www.pogodaiklimat.ru

Погода и климат >> Архив погоды >> Россия >> Кемеровская область >> Тисуль


АРХИВ ПОГОДЫ в Тисуле

Время (UTC), дата Ветер
(напр.,м/с)
 
Видим.   Явления Облачность Т
(С)
Тd
(С)
f
(%)
Тe
(С)
Тes
(С)
Комфортность P
(гПа)
Po
(гПа)
Тmin
(С)
Tmax
(С)
R
(мм)
R24
(мм)
S
(см)
00 14.08 штиль 0 20 км туман поземный 10/0
[Cs]
+6.3 +5.5 95 +5 +6 1012.4 986.7 +4.3
06 14.08 В 4 20 км 10/1 600 м
[Cu hum Cs]
+19.9 +10.6 55 +21 +27 комфорт 1011.5 987.1
12 14.08 В 2 20 км 9/0
[Cs]
+20.2 +11.2 56 +22 +23 комфорт 1011.1 986.6 +21.6
18 14.08 В 2 20 км 4/0
[Ac trans]
+13.5 +9.9 79 +13 +13 1010.9 986.0
00 15.08 штиль 0 20 км 3/0
[Ac trans Ci fib]
+9.2 +8.2 93 +8 +9 1010.5 985.1 +7.5
06 15.08 СВ 1 20 км 8/1 1000 м
[Cu hum Ci fib]
+22.5 +12.9 55 +25 +36 комфорт 1009.0 984.8
09 15.08 В 1 20 км 9/1 600 м
[Cb calv Ci sp]
+24.1 +13.4 51 +26 +33 жарко 1009.1 985.0
12 15.08 СВ 2 20 км 8/0
[Ci fib]
+23.0 +14.4 58 +27 +27 душно 1009.0 984.9 +25.5
18 15.08 штиль 0 20 км туман поземный 10/0
[Cs]
+14.1 +13.1 94 +14 +14 1009.6 984.7
00 16.08 штиль 0 20 км 10/5 1000 м
[Sc Ac trans Cs]
+14.0 +13.1 94 +14 +14 1008.6 983.7 +12.4
06 16.08 СВ 3 20 км 10/3 1000 м
[Sc Ac trans Cs]
+22.9 +13.2 54 +26 +29 жарко 1006.8 982.7
12 16.08 ЮЗ 2 20 км 10/8 600 м
[Cb cap Ac und]
+18.0 +12.9 72 +19 +19 1008.9 984.4 +23.9
18 16.08 штиль 0 20 км {ливн. осадки} 10/0
[Ac und]
+13.9 +12.8 93 +13 +13 1010.0 985.1
21 16.08 штиль 0 20 км 8/0
[Ac As]
+13.4 +12.5 94 +13 +13 1011.0 986.0
00 17.08 штиль 0 2000 м в посл. час туман 6/1 600 м
[Sc Ac trans Ci fib]
+12.0 +11.1 94 +11 +12 1012.1 986.9 +10.8 0.5
03 17.08 штиль 0 20 км 10/10 600 м
[Sc]
+18.1 +13.7 75 +18 +18 1012.4 987.8
06 17.08 В 1 20 км 9/8 1000 м
[Sc Ci fib]
+22.0 +13.5 59 +25 +27 комфорт 1012.2 987.9
09 17.08 С 3 20 км 6/4 600 м
[Cb calv Ci fib]
+24.4 +12.7 48 +26 +30 жарко 1011.7 987.6
12 17.08 СВ 1 20 км 6/6 600 м
[Cb cap]
+22.3 +12.4 53 +25 +25 комфорт 1012.1 987.8 +25.4
15 17.08 Ю 1 20 км 8/0
[Ac As]
+14.8 +13.6 93 +15 +15 1013.8 988.8
18 17.08 штиль 0 20 км туман поземный 8/0
[Ac As]
+13.2 +12.1 93 +13 +13 1013.7 988.6
21 17.08 штиль 0 20 км туман поземный 6/0
[Ac As]
+9.8 +8.9 94 +9 +9 1013.9 988.5
00 18.08 штиль 0 200 м туман ясно +11.0 +10.1 94 +10 +11 1014.3 989.0 +9.5
06 18.08 С 1 20 км {туман} 8/4 600 м
[Cu med, cong Ci fib]
+22.1 +14.2 61 +25 +32 комфорт 1013.1 988.8
12 18.08 С 2 20 км 3/3 600 м
[Cu Sc]
+22.5 +9.1 42 +24 +25 комфорт 1012.7 988.4 +24.9
00 19.08 В 1 20 км {туман} 9/0
[Cs]
+7.5 +6.6 94 +6 +7 1017.0 991.3 +5.5
12 19.08 СЗ 1 2000 м ливневой дождь 10/10 300 м
[Cb calv]
+15.2 +13.8 91 +16 +16 1016.3 991.3 +23.7 2
00 20.08 В 1 2000 м дымка 10/10 1000 м
[Sc]
+14.4 +13.5 94 +15 +15 1014.1 989.1 +14.1 14
03 20.08 штиль 0 4000 м слаб. ливневой дождь 10/10 400 м
[Cb cap]
+15.4 +14.4 94 +15 +15 1013.7 988.8
06 20.08 штиль 0 10 км слаб. ливневой дождь 10/10 570 м
[Cb cap]
+14.3 +13.1 92 +14 +14 1014.2 989.2
09 20.08 штиль 0 20 км слаб. ливневой дождь 10/8 630 м
[Cb cap Ac As]
+14.6 +12.5 87 +14 +15 1014.4 989.4
12 20.08 Ю 1 20 км слаб. ливневой дождь 9/6 600 м
[Cb cap Ac trans]
+14.6 +13.3 92 +15 +15 1014.8 989.8 +15.6 4

 

Местоположение метеостанции Тисуль (Кемеровская область, Россия): широта 55.75 долгота 88.30 высота над уровнем моря 211 м.

В архиве по умолчанию представлена погода в Тисуле за последнюю неделю. Архивные данные за месяц целиком и за предыдущие месяцы, начиная с января 2011 года, Вы можете получить, выбрав интересующий диапазон дат из раскрывающегося списка и нажав кнопку "Ввод!".


*Определитесь, кто Вы:
робот инопланетянин человек

Внимание! Время в таблицах - всемирное. Для получения местного времени необходимо прибавить поправку, которая равна 7 ч.

Смотрите также архив погоды в соседних городах и на ближайших метеорологических станциях:

Погода в Тяжине (Кемеровская область, Россия) (43 км)
Погода в Мариинске (Кемеровская область, Россия) (61 км)
Погода в Шарыпово (Красноярский край, Россия) (62 км)
Погода в Центральном Руднике (Кемеровская область, Россия) (74 км)
Погода в Боготоле (Красноярский край, Россия) (96 км)
Погода в Тюхтете (Красноярский край, Россия) (107 км)
Погода в Ужуре (Красноярский край, Россия) (108 км)
Погода в Ненастной (Хакасия, Россия) (116 км)
Погода в Яе (Кемеровская область, Россия) (124 км)
Погода в Крапивино (Кемеровская область, Россия) (125 км)

Пояснения к столбцам:

Ветер - указаны скорость ветра в м/с - средняя за 10 мин, порывы в срок и между сроками (в фигурных скобках) и направление, откуда дует ветер: С - северный, СВ - северо-восточный, В - восточный, ЮВ - юго-восточный, Ю - южный, ЮЗ - юго-западный, З - западный, СЗ - северо-западный.
Видимость - горизонтальная дальность видимости в метрах или километрах. При видимости от 1 до 10 км при отсутствии осадков обычно наблюдается дымка, при ухудшении видимости до 1 км и менее - туман. В сухую погоду видимость может ухудшаться дымом, пылью или мглою.
Явления - указаны атмосферные явления, наблюдавшиеся в срок или в последний час перед сроком; фигурными скобками обозначены явления, наблюдавшиеся между сроками (за 1-3 часа до срока); квадратными скобками обозначены град или гололедные отложения с указанием их диаметра в мм.
Облачность - указаны через наклонную черту общая и нижняя облачность в баллах и высота нижней границы облаков в метрах; квадратными скобками обозначены формы облаков: Ci - перистые, Cs - перисто-слоистые, Cc - перисто-кучевые, Ac - высококучевые, As - высокослоистые, Sc - слоисто-кучевые, Ns - слоисто-дождевые, Cu - кучевые, Cb - кучево-дождевые. Подробнее классификацию облаков см. в Атласе облаков (PDF).
T - Температура воздуха - температура, измеренная на высоте 2 м над землей.
Td - Температура точки росы - температура, при понижении до которой содержащийся в воздухе водяной пар достигнет насыщения.
f - Относительная влажность воздуха - влажноcть воздуха, измеренная на высоте 2 м над землей.
Te - Эффективная температура - температура, которую ощущает одетый по сезону человек в тени. Характеристика душности погоды. При расчете учитывается влияние влажности воздуха и скорости ветра на теплоощущения человека.
Tes - Эффективная температура на солнце - температура, которую ощущает человек, с поправкой на солнечный нагрев. Характеристика знойности погоды. Зависит от высоты солнца над горизонтом, облачности и скорости ветра. Ночью, в пасмурную погоду, а также при ветре 12 м/с и более поправка равна нулю.
P - Атмосферное давление - приведенное к уровню моря атмосферное давление.
Po - Атмосферное давление - измеренное на уровне метеостанции атмосферное давление.
Tmin - Минимальная температура - минимум температуры воздуха на высоте 2 м над землей.
Tmax - Максимальная температура - максимум температуры воздуха на высоте 2 м над землей.
R - Количество осадков - Количество выпавших осадков за период времени, мм. При наведении курсора мыши на число - период времени, за который выпало указанное количество осадков.
R24 - Количество осадков - Количество выпавших осадков за 24 часа, мм.
S - Снежный покров - Высота снежного покрова, см. При наведении курсора мыши на число - состояние снежного покрова и степень покрытия местности в баллах.